Farnsworth, TX

4:24 PM CST on February 08, 2016 (GMT -0600)
Perryton Ochiltree County

Weather History for KPYX - September, 2013

Change the Weather History Date:

Tuesday, September 24, 2013

  Actual Average Record
Temperature  
Mean Temperature 66 °F -  
Max Temperature 81 °F 78 °F 97 °F (1984)
Min Temperature 50 °F 48 °F 32 °F (1989)
Growing Degree Days 16 (Base 50)    
Moisture  
Dew Point 46 °F    
Average Humidity 53    
Maximum Humidity 87    
Minimum Humidity 21    
Precipitation  
Precipitation 0.00 in - - ()
Sea Level Pressure  
Sea Level Pressure 30.04 in    
Wind  
Wind Speed 7 mph (WNW)    
Max Wind Speed 14 mph    
Max Gust Speed 18 mph    
Visibility 10 miles    
Events      
Averages and records for this station are not official NWS values.
T = Trace of Precipitation, MM = Missing Value Source: NWS Daily Summary

Daily Weather History Graph

Daily Weather History Graph

Search for Another Location

Airport or City:

Trip Planner

Search our weather history database for the weather conditions in past years. The results will help you decide how hot, cold, wet, or windy it might be!

Date:

Astronomy

Sep. 24, 2013 Rise Set
Actual Time 7:32 AM CDT 7:36 PM CDT
Civil Twilight 7:07 AM CDT 8:02 PM CDT
Nautical Twilight 6:37 AM CDT 8:32 PM CDT
Astronomical Twilight 6:06 AM CDT 9:02 PM CDT
Moon 11:04 PM CDT (9/24) 12:40 PM CDT (9/24)
Length of Visible Light 12h 55m
Length of Day
12h 03m
Waning Gibbous, 73% of the Moon is Illuminated
Sep 24
Waning Gibbous
Sep 26
Last Quarter
Oct 4
New
Oct 11
First Quarter
Oct 18
Full

Hourly Weather History & Observations

Time (CDT) Temp. Dew Point Humidity Pressure Visibility Wind Dir Wind Speed Gust Speed Precip Events Conditions
12:15 AM 61.5 °F 46.8 °F 58% 29.98 in 10.0 mi NNE 5.8 mph - N/A   Unknown
12:35 AM 61.0 °F 47.3 °F 61% 29.99 in 10.0 mi NNE 5.8 mph - N/A   Unknown
12:55 AM 59.5 °F 47.7 °F 65% 29.99 in 10.0 mi NNE 5.8 mph - N/A   Unknown
1:15 AM 59.2 °F 47.5 °F 65% 29.99 in 10.0 mi NNE 3.5 mph - N/A   Unknown
1:35 AM 58.5 °F 47.8 °F 68% 30.00 in 10.0 mi North 6.9 mph - N/A   Unknown
1:55 AM 57.2 °F 47.8 °F 71% 30.01 in 10.0 mi North 6.9 mph - N/A   Unknown
2:35 AM 57.9 °F 47.5 °F 68% 30.02 in 10.0 mi NNW 6.9 mph - N/A   Unknown
2:55 AM 57.0 °F 47.7 °F 71% 30.03 in 10.0 mi NNW 6.9 mph - N/A   Unknown
3:15 AM 54.9 °F 47.7 °F 77% 30.03 in 10.0 mi NW 5.8 mph - N/A   Unknown
3:35 AM 54.7 °F 47.8 °F 78% 30.03 in 10.0 mi NW 5.8 mph - N/A   Unknown
3:55 AM 54.3 °F 47.8 °F 79% 30.03 in 10.0 mi NW 5.8 mph - N/A   Unknown
4:35 AM 54.0 °F 47.3 °F 78% 30.04 in 10.0 mi NW 5.8 mph - N/A   Unknown
4:55 AM 52.9 °F 47.3 °F 81% 30.04 in 10.0 mi NW 5.8 mph - N/A   Unknown
5:15 AM 52.9 °F 47.3 °F 81% 30.05 in 10.0 mi WNW 6.9 mph - N/A   Unknown
5:35 AM 51.8 °F 47.3 °F 85% 30.05 in 10.0 mi West 6.9 mph - N/A   Unknown
5:55 AM 52.2 °F 47.5 °F 84% 30.06 in 10.0 mi WNW 8.1 mph - N/A   Unknown
6:15 AM 52.7 °F 47.3 °F 82% 30.06 in 10.0 mi WNW 8.1 mph - N/A   Unknown
6:35 AM 52.7 °F 47.3 °F 82% 30.06 in 10.0 mi WNW 5.8 mph - N/A   Unknown
6:55 AM 52.0 °F 47.3 °F 84% 30.07 in 10.0 mi West 5.8 mph - N/A   Unknown
7:15 AM 50.5 °F 46.8 °F 87% 30.07 in 10.0 mi WNW 5.8 mph - N/A   Unknown
7:35 AM 50.9 °F 47.3 °F 87% 30.08 in 10.0 mi West 9.2 mph - N/A   Unknown
7:55 AM 51.1 °F 47.3 °F 87% 30.09 in 10.0 mi West 8.1 mph - N/A   Unknown
8:15 AM 52.7 °F 47.8 °F 84% 30.09 in 10.0 mi West 9.2 mph - N/A   Unknown
8:35 AM 54.5 °F 48.6 °F 80% 30.09 in 10.0 mi WNW 6.9 mph - N/A   Unknown
8:55 AM 57.0 °F 49.6 °F 76% 30.09 in 10.0 mi WNW 8.1 mph - N/A   Unknown
9:15 AM 60.1 °F 49.5 °F 68% 30.10 in 10.0 mi WNW 9.2 mph - N/A   Unknown
9:35 AM 61.9 °F 50.4 °F 66% 30.11 in 10.0 mi NW 9.2 mph - N/A   Unknown
9:55 AM 64.0 °F 50.2 °F 61% 30.12 in 10.0 mi NW 10.4 mph - N/A   Unknown
10:15 AM 65.8 °F 50.7 °F 58% 30.12 in 10.0 mi WNW 9.2 mph - N/A   Unknown
10:35 AM 67.5 °F 50.2 °F 54% 30.12 in 10.0 mi WNW 10.4 mph - N/A   Unknown
10:55 AM 69.3 °F 48.9 °F 48% 30.12 in 10.0 mi NW 12.7 mph - N/A   Unknown
11:15 AM 70.5 °F 48.6 °F 46% 30.12 in 10.0 mi NW 12.7 mph - N/A   Unknown
11:35 AM 71.6 °F 48.6 °F 44% 30.12 in 10.0 mi NW 11.5 mph - N/A   Unknown
11:55 AM 72.5 °F 47.5 °F 41% 30.11 in 10.0 mi NW 12.7 mph 17.3 mph N/A   Unknown
12:15 PM 73.4 °F 46.8 °F 39% 30.11 in 10.0 mi NNW 10.4 mph 17.3 mph N/A   Unknown
12:55 PM 75.2 °F 45.3 °F 34% 30.10 in 10.0 mi WNW 9.2 mph 16.1 mph N/A   Unknown
1:15 PM 76.6 °F 44.2 °F 32% 30.09 in 10.0 mi NNW 9.2 mph 17.3 mph N/A   Unknown
1:35 PM 77.5 °F 44.6 °F 31% 30.09 in 10.0 mi WNW 11.5 mph 16.1 mph N/A   Unknown
1:55 PM 78.1 °F 44.1 °F 30% 30.08 in 10.0 mi NW 10.4 mph 17.3 mph N/A   Unknown
2:15 PM 78.8 °F 43.2 °F 28% 30.07 in 10.0 mi NW 10.4 mph 18.4 mph N/A   Unknown
2:35 PM 78.8 °F 43.0 °F 28% 30.06 in 10.0 mi NW 6.9 mph - N/A   Unknown
2:55 PM 79.5 °F 42.1 °F 26% 30.05 in 10.0 mi WNW 6.9 mph 16.1 mph N/A   Unknown
3:15 PM 81.3 °F 40.8 °F 24% 30.04 in 10.0 mi WNW 10.4 mph - N/A   Unknown
3:35 PM 81.5 °F 40.3 °F 23% 30.04 in 10.0 mi WNW 13.8 mph 17.3 mph N/A   Unknown
3:55 PM 81.3 °F 39.6 °F 23% 30.03 in 10.0 mi NW 5.8 mph 9.2 mph N/A   Unknown
4:15 PM 81.5 °F 39.7 °F 23% 30.03 in 10.0 mi WNW 11.5 mph 18.4 mph N/A   Unknown
4:35 PM 81.3 °F 39.7 °F 23% 30.02 in 10.0 mi NW 10.4 mph - N/A   Unknown
4:55 PM 80.8 °F 39.4 °F 23% 30.01 in 10.0 mi Calm Calm - N/A   Unknown
5:15 PM 80.8 °F 39.2 °F 23% 30.01 in 10.0 mi WSW 5.8 mph - N/A   Unknown
5:35 PM 81.5 °F 38.7 °F 22% 30.00 in 10.0 mi West 8.1 mph - N/A   Unknown
5:55 PM 81.3 °F 38.1 °F 21% 30.00 in 10.0 mi NW 6.9 mph - N/A   Unknown
6:15 PM 81.0 °F 37.8 °F 21% 30.00 in 10.0 mi West 9.2 mph - N/A   Unknown
6:35 PM 80.2 °F 37.6 °F 22% 30.00 in 10.0 mi West 5.8 mph - N/A   Unknown
6:55 PM 79.7 °F 37.4 °F 22% 30.00 in 10.0 mi WNW 3.5 mph - N/A   Unknown
7:15 PM 78.6 °F 40.1 °F 25% 29.99 in 10.0 mi Calm Calm - N/A   Unknown
7:35 PM 75.0 °F 44.4 °F 34% 29.99 in 5.0 mi South 3.5 mph - N/A   Unknown
7:55 PM 74.1 °F 41.5 °F 31% 29.98 in 7.0 mi South 3.5 mph - N/A   Unknown
8:15 PM 70.7 °F 44.8 °F 39% 29.99 in 7.0 mi South 3.5 mph - N/A   Unknown
8:35 PM 67.5 °F 46.6 °F 47% 29.99 in 10.0 mi South 6.9 mph - N/A   Unknown
8:55 PM 66.6 °F 47.1 °F 50% 29.99 in 10.0 mi South 5.8 mph - N/A   Unknown
9:15 PM 65.5 °F 46.6 °F 50% 30.00 in 10.0 mi South 5.8 mph - N/A   Unknown
9:35 PM 64.2 °F 47.3 °F 54% 30.00 in 10.0 mi SSE 5.8 mph - N/A   Unknown
9:55 PM 63.5 °F 49.1 °F 59% 30.00 in 10.0 mi South 6.9 mph - N/A   Unknown
10:15 PM 62.6 °F 48.9 °F 61% 30.00 in 10.0 mi South 5.8 mph - N/A   Unknown
10:35 PM 63.1 °F 47.7 °F 57% 29.99 in 10.0 mi SSE 5.8 mph - N/A   Unknown
10:55 PM 65.5 °F 45.3 °F 48% 29.98 in 10.0 mi ESE 6.9 mph - N/A   Unknown
11:15 PM 68.0 °F 42.8 °F 40% 29.98 in 10.0 mi ESE 6.9 mph - N/A   Unknown
11:35 PM 61.5 °F 48.2 °F 62% 29.98 in 10.0 mi South 4.6 mph - N/A   Unknown
11:55 PM 60.3 °F 48.2 °F 64% 29.98 in 10.0 mi South 6.9 mph - N/A   Unknown